Colby, KS

1:13 AM CST on November 15, 2019 (GMT -0600)
Shaltz

Weather History for KCBK - September, 2019

Change the Weather History Date:

Thursday, September 12, 2019

  Actual Average (WUND) Record (WUND)
Temperature  
Mean Temperature 66 °F -  
Max Temperature 78 °F - - (-1)
Min Temperature 50 °F - - (-1)
Growing Degree Days 16 (Base 50)    
Moisture  
Dew Point 45 °F    
Average Humidity 58    
Maximum Humidity 100    
Minimum Humidity 21    
Precipitation  
Precipitation 0.00 in - - ()
Sea Level Pressure  
Sea Level Pressure 30.13 in    
Wind  
Wind Speed 13 mph (NW)    
Max Wind Speed 21 mph    
Max Gust Speed 36 mph    
Visibility 10 miles    
Events      
Averages and records for this station are not official NWS values.
T = Trace of Precipitation, MM = Missing Value Source: NWS Daily Summary

Daily Weather History Graph

Daily Weather History Graph

Search for Another Location

Airport or City:

Astronomy

Sep. 12, 2019 Rise Set
Actual Time 7:22 AM CDT 7:57 PM CDT
Civil Twilight 6:55 AM CDT 8:24 PM CDT
Nautical Twilight 6:23 AM CDT 8:56 PM CDT
Astronomical Twilight 5:50 AM CDT 9:29 PM CDT
Moon 7:42 PM CDT (9/12) 5:44 AM CDT (9/12)
Length of Visible Light 13h 29m
Length of Day
12h 35m
Waxing Gibbous, 98% of the Moon is Illuminated
Sep 12
Waxing Gibbous
Sep 13
Full
Sep 21
Last Quarter
Sep 28
New
Oct 5
First Quarter

Hourly Weather History & Observations

Time (CDT) Temp. Dew Point Humidity Pressure Visibility Wind Dir Wind Speed Gust Speed Precip Events Conditions
12:15 AM 62.6 °F 51.8 °F 68% 29.99 in 10.0 mi NNW 20.7 mph 35.7 mph N/A   Overcast
12:35 AM 60.8 °F 51.8 °F 72% 30.01 in 10.0 mi NNW 18.4 mph 29.9 mph N/A   Overcast
12:55 AM 59.0 °F 51.8 °F 77% 30.01 in 10.0 mi North 19.6 mph 26.5 mph N/A   Overcast
1:15 AM 59.0 °F 53.6 °F 82% 30.01 in 10.0 mi North 13.8 mph 21.9 mph N/A   Overcast
1:55 AM 59.0 °F 51.8 °F 77% 30.01 in 10.0 mi NNE 11.5 mph 18.4 mph N/A   Overcast
2:35 AM 59.0 °F 51.8 °F 77% 30.03 in 10.0 mi North 9.2 mph - N/A   Overcast
2:55 AM 59.0 °F 51.8 °F 77% 30.03 in 10.0 mi NNW 10.4 mph - N/A   Overcast
3:15 AM 59.0 °F 51.8 °F 77% 30.03 in 10.0 mi NW 9.2 mph - N/A   Mostly Cloudy
3:35 AM 57.2 °F 51.8 °F 82% 30.03 in 10.0 mi NW 8.1 mph - N/A   Mostly Cloudy
3:55 AM 55.4 °F 51.8 °F 88% 30.04 in 10.0 mi NW 5.8 mph - N/A   Scattered Clouds
4:15 AM 55.4 °F 51.8 °F 88% 30.04 in 10.0 mi NW 6.9 mph - N/A   Clear
4:35 AM 55.4 °F 53.6 °F 94% 30.05 in 10.0 mi NW 9.2 mph - N/A   Clear
4:55 AM 55.4 °F 53.6 °F 94% 30.05 in 10.0 mi NW 9.2 mph - N/A   Clear
5:15 AM 53.6 °F 53.6 °F 100% 30.07 in 10.0 mi WNW 5.8 mph - N/A   Clear
5:35 AM 53.6 °F 53.6 °F 100% 30.07 in 10.0 mi NW 8.1 mph - N/A   Clear
5:55 AM 53.6 °F 53.6 °F 100% 30.07 in 10.0 mi NW 8.1 mph - N/A   Clear
6:15 AM 53.6 °F 53.6 °F 100% 30.08 in 10.0 mi WNW 10.4 mph - N/A   Clear
6:35 AM 53.6 °F 51.8 °F 94% 30.09 in 10.0 mi NW 9.2 mph - N/A   Clear
7:15 AM 53.6 °F 51.8 °F 94% 30.10 in 10.0 mi NW 8.1 mph - N/A   Clear
7:35 AM 53.6 °F 51.8 °F 94% 30.11 in 10.0 mi NW 8.1 mph - N/A   Clear
7:55 AM 53.6 °F 51.8 °F 94% 30.13 in 10.0 mi NW 12.7 mph - N/A   Clear
8:15 AM 53.6 °F 51.8 °F 94% 30.14 in 10.0 mi NNW 9.2 mph - N/A   Clear
8:35 AM 55.4 °F 51.8 °F 88% 30.14 in 10.0 mi NNW 6.9 mph - N/A   Clear
8:55 AM 59.0 °F 50.0 °F 72% 30.15 in 10.0 mi NNW 10.4 mph 17.3 mph N/A   Scattered Clouds
9:15 AM 60.8 °F 46.4 °F 59% 30.15 in 10.0 mi NNW 12.7 mph 21.9 mph N/A   Scattered Clouds
9:35 AM 60.8 °F 44.6 °F 55% 30.15 in 10.0 mi NW 17.3 mph 24.2 mph N/A   Mostly Cloudy
9:55 AM 62.6 °F 44.6 °F 52% 30.17 in 10.0 mi NNW 17.3 mph 25.3 mph N/A   Mostly Cloudy
10:15 AM 62.6 °F 42.8 °F 48% 30.17 in 10.0 mi NNW 16.1 mph 23.0 mph N/A   Scattered Clouds
10:35 AM 64.4 °F 42.8 °F 45% 30.17 in 10.0 mi NNW 15.0 mph - N/A   Clear
10:55 AM 64.4 °F 42.8 °F 45% 30.17 in 10.0 mi NNW 16.1 mph - N/A   Clear
11:15 AM 68.0 °F 42.8 °F 40% 30.17 in 10.0 mi NW 13.8 mph 19.6 mph N/A   Clear
11:35 AM 69.8 °F 41.0 °F 35% 30.17 in 10.0 mi NW 18.4 mph 23.0 mph N/A   Clear
11:55 AM 69.8 °F 41.0 °F 35% 30.17 in 10.0 mi NNW 17.3 mph 23.0 mph N/A   Clear
12:15 PM 69.8 °F 41.0 °F 35% 30.16 in 10.0 mi NW 15.0 mph 23.0 mph N/A   Clear
12:35 PM 71.6 °F 41.0 °F 33% 30.17 in 10.0 mi NW 20.7 mph 28.8 mph N/A   Clear
12:55 PM 71.6 °F 41.0 °F 33% 30.17 in 10.0 mi NW 18.4 mph 26.5 mph N/A   Clear
1:15 PM 73.4 °F 39.2 °F 29% 30.16 in 10.0 mi NW 19.6 mph 26.5 mph N/A   Clear
1:35 PM 73.4 °F 39.2 °F 29% 30.16 in 10.0 mi NW 20.7 mph 27.6 mph N/A   Clear
1:55 PM 75.2 °F 39.2 °F 27% 30.16 in 10.0 mi NW 15.0 mph 21.9 mph N/A   Clear
2:15 PM 77.0 °F 39.2 °F 26% 30.16 in 10.0 mi NW 17.3 mph 20.7 mph N/A   Clear
2:35 PM 77.0 °F 39.2 °F 26% 30.15 in 10.0 mi NW 13.8 mph 23.0 mph N/A   Clear
2:55 PM 77.0 °F 39.2 °F 26% 30.15 in 10.0 mi NW 15.0 mph 23.0 mph N/A   Clear
3:15 PM 78.8 °F 37.4 °F 23% 30.15 in 10.0 mi NW 11.5 mph 31.1 mph N/A   Clear
3:35 PM 77.0 °F 37.4 °F 24% 30.15 in 10.0 mi WNW 12.7 mph 26.5 mph N/A   Clear
3:55 PM 78.8 °F 37.4 °F 23% 30.15 in 10.0 mi NW 17.3 mph 25.3 mph N/A   Clear
4:15 PM 78.8 °F 37.4 °F 23% 30.15 in 10.0 mi NNW 13.8 mph 19.6 mph N/A   Clear
4:55 PM 78.8 °F 37.4 °F 23% 30.15 in 10.0 mi NW 10.4 mph 17.3 mph N/A   Clear
5:15 PM 78.8 °F 37.4 °F 23% 30.15 in 10.0 mi NW 17.3 mph 21.9 mph N/A   Scattered Clouds
5:35 PM 78.8 °F 35.6 °F 21% 30.14 in 10.0 mi NW 12.7 mph 20.7 mph N/A   Clear
5:55 PM 77.0 °F 35.6 °F 22% 30.15 in 10.0 mi NW 15.0 mph 19.6 mph N/A   Clear
6:15 PM 77.0 °F 35.6 °F 22% 30.14 in 10.0 mi NW 13.8 mph - N/A   Clear
6:55 PM 75.2 °F 37.4 °F 25% 30.15 in 10.0 mi NW 8.1 mph - N/A   Clear
7:15 PM 73.4 °F 37.4 °F 27% 30.16 in 10.0 mi NNW 10.4 mph 16.1 mph N/A   Clear
7:35 PM 71.6 °F 39.2 °F 31% 30.17 in 10.0 mi North 8.1 mph - N/A   Clear
8:15 PM 66.2 °F 41.0 °F 40% 30.18 in 10.0 mi North 8.1 mph - N/A   Clear
8:35 PM 66.2 °F 41.0 °F 40% 30.19 in 10.0 mi North 8.1 mph - N/A   Clear
8:55 PM 64.4 °F 41.0 °F 42% 30.20 in 10.0 mi NNW 5.8 mph - N/A   Clear
9:35 PM 55.4 °F 44.6 °F 67% 30.23 in 10.0 mi Calm Calm - N/A   Clear
9:55 PM 53.6 °F 46.4 °F 77% 30.24 in 10.0 mi SW 3.5 mph - N/A   Clear
10:15 PM 53.6 °F 46.4 °F 77% 30.24 in 10.0 mi SSW 3.5 mph - N/A   Clear
10:35 PM 53.6 °F 44.6 °F 72% 30.25 in 10.0 mi SW 3.5 mph - N/A   Clear
10:55 PM 53.6 °F 44.6 °F 72% 30.24 in 10.0 mi Calm Calm - N/A   Clear
11:15 PM 53.6 °F 42.8 °F 67% 30.24 in 10.0 mi North 4.6 mph - N/A   Clear
11:35 PM 53.6 °F 44.6 °F 72% 30.25 in 10.0 mi Calm Calm - N/A   Clear
11:55 PM 50.0 °F 44.6 °F 82% 30.25 in 10.0 mi WSW 3.5 mph - N/A   Clear